Overview Statistics Trail Chart Weather Telemetry Raw packets
 

This is the latest recevied weather packets stored in our database for station/object N7IGG. If no packets are shown the sender has not sent any weather packets the latest 10 day(s).

<< 1 2 3 4 5 6 >>
Time Temp. Humidity Pressure Rain* Wind** Luminosity Snow
1778194224 18.33° C 65% 1018.7 hPa 0 mm - 489 W/m² -
1778193920 18.33° C 68% 1018.7 hPa 0 mm - 530 W/m² -
1778193617 17.78° C 69% 1018.8 hPa 0 mm - 517 W/m² -
1778193313 17.78° C 69% 1018.9 hPa 0 mm - 405 W/m² -
1778193010 17.78° C 70% 1018.9 hPa 0 mm - 327 W/m² -
1778192707 17.78° C 72% 1019 hPa 0 mm - 351 W/m² -
1778192403 17.78° C 70% 1019.3 hPa 0 mm - 552 W/m² -
1778192100 17.78° C 66% 1018.9 hPa 0 mm - 612 W/m² -
1778191796 17.78° C 64% 1019 hPa 0 mm - 639 W/m² -
1778191494 17.78° C 66% 1018.9 hPa 0 mm - 625 W/m² -
1778191190 17.78° C 66% 1019.3 hPa 0 mm - 628 W/m² -
1778190887 17.78° C 67% 1019.4 hPa 0 mm - 652 W/m² -
1778190585 17.22° C 68% 1019.1 hPa 0 mm - 653 W/m² -
1778190282 16.67° C 71% 1019.1 hPa 0 mm - 637 W/m² -
1778189977 16.11° C 73% 1019.4 hPa 0 mm - 598 W/m² -
1778189674 16.67° C 73% 1019.5 hPa 0 mm - 680 W/m² -
1778189371 16.11° C 72% 1019.5 hPa 0 mm - 691 W/m² -
1778189067 15.56° C 74% 1019.6 hPa 0 mm - 681 W/m² -
1778188764 15.56° C 75% 1019.7 hPa 0 mm - 716 W/m² -
1778188480 15° C 76% 1019.8 hPa 0 mm - 603 W/m² -
1778188157 14.44° C 77% 1019.8 hPa 0 mm - 729 W/m² -
1778187854 15° C 78% 1019.8 hPa 0 mm - 676 W/m² -
1778187551 14.44° C 77% 1019.8 hPa 0 mm - 692 W/m² -
1778187249 14.44° C 76% 1019.8 hPa 0 mm - 614 W/m² -
1778186944 15° C 76% 1020 hPa 0 mm - 681 W/m² -

* Rain latest hour (hover to see other rain measurements)
** Current wind speed in m/s (hover to see current wind gust speed)